{"data":{"norad_id":54010,"epoch":"2026-05-25T05:26:50.055936Z","epoch_age_seconds":65642,"freshness":"FRESH","line1":"1 54010U 22125AY  26145.22696824 -.00000517  00000+0 -14418-4 0  9995","line2":"2 54010  53.2132 220.1003 0001568  97.1338 262.9833 15.08839098201161","mean_motion":15.08839098,"eccentricity":0.0001568,"inclination_deg":53.2132,"raan_deg":220.1003,"arg_perigee_deg":97.1338,"mean_anomaly_deg":262.9833,"bstar":-1.4418e-5,"rev_number":20116,"period_min":95.437611731347,"perigee_km":538.66142194133,"apogee_km":540.83087009592,"semimajor_km":6917.8831460186,"source":"CELESTRAK","updated_at":"2026-05-25T13:38:17.626127Z"}}